EW4931 Weather Reports


Display with metric or nautical units.
time (UTC)temp
F
wind
direction
speed
MPH
gust
MPH
rain 1hr
in
rain 24hr
in
rain mn
in
humidity
%
barometer
mb
20260905234405 53 0 2.0 4.0 0.00 0.00 0.00 88 1006.7
20260905233905 54 0 2.0 4.0 0.00 0.00 0.00 88 1006.6
20260905233625 54 0 2.0 5.0 0.00 0.00 0.00 88 1006.5
20260905232902 54 10 2.0 5.0 0.00 0.00 0.00 88 1006.5
20260905232402 54 0 1.0 3.0 0.00 0.00 0.00 88 1006.5
20260905232122 54 0 1.0 3.0 0.00 0.00 0.00 88 1006.5
20260905231403 54 0 1.0 3.0 0.00 0.00 0.00 88 1006.3
20260905230902 54 0 2.0 5.0 0.00 0.00 0.00 88 1006.3
20260905230403 54 0 2.0 5.0 0.00 0.00 0.00 88 1006.2
20260905225902 54 24 1.0 5.0 0.00 0.00 0.00 88 1006.1
20260905225402 54 24 3.0 5.0 0.00 0.00 0.00 88 1006.0
20260905224903 54 35 2.0 7.0 0.00 0.00 0.00 88 1005.9
20260905224402 54 0 3.0 7.0 0.00 0.00 0.00 88 1006.0
20260905223902 54 0 3.0 6.0 0.00 0.00 0.00 88 1005.8
20260905223402 54 17 1.0 6.0 0.00 0.00 0.00 88 1005.7
20260905222902 54 4 2.0 3.0 0.00 0.00 0.00 88 1005.7
20260905222403 54 353 1.0 4.0 0.00 0.00 0.00 88 1005.7
20260905221904 54 0 1.0 4.0 0.00 0.00 0.00 87 1005.5
20260905221403 54 0 1.0 4.0 0.00 0.00 0.00 87 1005.5
20260905220903 54 8 3.0 4.0 0.00 0.00 0.00 87 1005.4
20260905220627 54 0 3.0 4.0 0.00 0.00 0.00 87 1005.3
20260905215904 55 8 2.0 5.0 0.00 0.00 0.00 87 1005.2
20260905215403 55 7 3.0 5.0 0.00 0.00 0.00 86 1005.2
20260905214904 55 0 2.0 5.0 0.00 0.00 0.00 86 1005.1
20260905214404 55 348 3.0 5.0 0.00 0.00 0.00 86 1005.1
20260905213903 55 23 3.0 5.0 0.00 0.00 0.00 86 1005.1
20260905213404 55 11 2.0 6.0 0.00 0.00 0.00 85 1005.0
20260905212904 55 4 2.0 6.0 0.00 0.00 0.00 85 1004.9
20260905212405 55 45 4.0 6.0 0.00 0.00 0.00 85 1004.9
20260905211903 55 25 2.0 6.0 0.00 0.00 0.00 85 1004.8
20260905211403 55 25 2.0 6.0 0.00 0.00 0.00 84 1004.8
20260905210903 55 28 3.0 7.0 0.00 0.00 0.00 84 1004.7
20260905210404 55 3 4.0 7.0 0.00 0.00 0.00 84 1004.7
20260905205905 56 8 3.0 6.0 0.00 0.00 0.00 84 1004.6
20260905205405 56 24 4.0 6.0 0.00 0.00 0.00 84 1004.5
20260905204904 56 34 4.0 6.0 0.00 0.00 0.00 83 1004.4
20260905204405 56 7 3.0 7.0 0.00 0.00 0.00 83 1004.3
20260905204348 56 0 4.0 11.0 0.00 0.00 0.00 83 1004.3
20260905203405 56 0 3.0 11.0 0.00 0.00 0.00 83 1004.2
20260905202906 56 23 3.0 9.0 0.00 0.00 0.00 83 1004.1
20260905202405 56 27 4.0 9.0 0.00 0.00 0.00 83 1004.0
20260905201904 56 32 2.0 5.0 0.00 0.00 0.00 83 1004.0
20260905201629 56 0 1.0 6.0 0.00 0.00 0.00 83 1004.0
20260905200905 56 358 4.0 6.0 0.00 0.00 0.00 83 1004.0
20260905200404 55 355 2.0 4.0 0.00 0.00 0.00 84 1003.9
20260905195904 55 18 1.0 5.0 0.00 0.00 0.00 84 1003.9
20260905195405 55 348 2.0 5.0 0.00 0.00 0.00 84 1003.9
20260905195129 55 338 1.0 3.0 0.00 0.00 0.00 84 1003.7
20260905194405 56 343 2.0 4.0 0.00 0.00 0.00 84 1003.6
20260905193904 56 0 2.0 4.0 0.00 0.00 0.00 84 1003.6
20260905193405 56 338 2.0 4.0 0.00 0.00 0.00 84 1003.5
20260905193350 56 330 3.0 5.0 0.00 0.00 0.00 83 1003.5
20260905192405 56 309 2.0 5.0 0.00 0.00 0.00 83 1003.5
20260905191905 56 326 2.0 4.0 0.00 0.00 0.00 83 1003.4
20260905191404 56 330 3.0 4.0 0.00 0.00 0.00 83 1003.3
20260905191127 56 299 2.0 5.0 0.00 0.00 0.00 83 1003.3
20260905190405 56 300 2.0 5.0 0.00 0.00 0.00 83 1003.2
20260905185905 56 316 3.0 5.0 0.00 0.00 0.00 83 1003.2
20260905185404 56 314 2.0 4.0 0.00 0.00 0.00 83 1003.2
20260905184905 56 320 3.0 4.0 0.00 0.00 0.00 84 1003.0
20260905184404 56 312 2.0 4.0 0.00 0.00 0.00 84 1003.0
20260905184123 56 299 2.0 2.0 0.00 0.00 0.00 84 1002.9
20260905183842 56 298 1.0 2.0 0.00 0.00 0.00 85 1002.9
20260905183351 56 299 1.0 2.0 0.00 0.00 0.00 85 1002.9
20260905182856 56 298 0.0 1.0 0.00 0.00 0.00 85 1002.8
20260905181904 56 298 0.0 1.0 0.00 0.00 0.00 84 1002.8
20260905181405 57 299 0.0 0.0 0.00 0.00 0.00 83 1002.7
20260905180905 57 299 0.0 0.0 0.00 0.00 0.00 83 1002.7
20260905180845 57 299 0.0 0.0 0.00 0.00 0.00 83 1002.7
20260905180131 58 299 0.0 0.0 0.00 0.00 0.00 82 1002.6
20260905175404 58 299 0.0 0.0 0.00 0.00 0.00 82 1002.5
20260905174905 58 298 0.0 0.0 0.00 0.00 0.00 81 1002.4
20260905174404 58 299 0.0 0.0 0.00 0.00 0.00 81 1002.4
20260905173904 59 299 0.0 0.0 0.00 0.00 0.00 80 1002.3
20260905173404 60 299 0.0 2.0 0.00 0.00 0.00 79 1002.2
20260905172904 60 299 0.0 2.0 0.00 0.00 0.00 78 1002.1
20260905172404 60 299 1.0 1.0 0.00 0.00 0.00 77 1002.1
20260905171905 61 299 0.0 1.0 0.00 0.00 0.00 77 1002.0
20260905171405 61 299 0.0 1.0 0.00 0.00 0.00 76 1001.9
20260905170905 61 299 0.0 0.0 0.00 0.00 0.00 77 1002.0
20260905170405 61 299 0.0 1.0 0.00 0.00 0.00 77 1001.9
20260905165905 62 299 1.0 2.0 0.00 0.00 0.00 76 1001.9
20260905165404 62 299 0.0 2.0 0.00 0.00 0.00 76 1001.8
20260905164904 62 299 0.0 2.0 0.00 0.00 0.00 76 1001.8
20260905164405 62 299 0.0 2.0 0.00 0.00 0.00 78 1001.6
20260905163905 61 299 0.0 0.0 0.00 0.00 0.00 79 1001.5
20260905163404 61 299 0.0 0.0 0.00 0.00 0.00 80 1001.5
20260905162905 60 299 0.0 0.0 0.00 0.00 0.00 80 1001.5
20260905162404 60 299 0.0 0.0 0.00 0.00 0.00 80 1001.4
20260905161904 60 299 0.0 0.0 0.00 0.00 0.00 80 1001.3
20260905161405 60 299 0.0 2.0 0.00 0.00 0.00 80 1001.3
20260905160904 59 299 0.0 2.0 0.00 0.00 0.00 80 1001.3
20260905160405 60 299 0.0 3.0 0.00 0.00 0.00 79 1001.3
20260905155904 60 299 1.0 4.0 0.00 0.00 0.00 79 1001.2
20260905155404 60 299 2.0 4.0 0.00 0.00 0.00 79 1001.2
20260905154905 60 298 3.0 4.0 0.00 0.00 0.00 78 1001.1
20260905154404 60 310 1.0 3.0 0.00 0.00 0.00 77 1001.0
20260905153904 60 310 2.0 4.0 0.00 0.00 0.00 77 1001.0
20260905153405 60 307 2.0 5.0 0.00 0.00 0.00 77 1000.9
20260905152904 60 314 3.0 5.0 0.00 0.00 0.00 76 1000.9
20260905152404 60 300 2.0 4.0 0.00 0.00 0.00 76 1000.9
20260905151905 60 319 2.0 4.0 0.00 0.00 0.00 77 1000.8
20260905151404 60 306 3.0 4.0 0.00 0.00 0.00 77 1000.8
20260905151130 60 314 3.0 6.0 0.00 0.00 0.00 77 1000.8
20260905150404 59 299 3.0 6.0 0.00 0.00 0.00 78 1000.8
20260905150123 59 293 3.0 5.0 0.00 0.00 0.00 77 1000.7
20260905145405 59 317 2.0 5.0 0.00 0.00 0.00 79 1000.6
20260905144917 58 314 3.0 7.0 0.00 0.00 0.00 79 1000.6
20260905144628 58 290 2.0 7.0 0.00 0.00 0.00 78 1000.6
20260905143904 59 316 4.0 7.0 0.00 0.00 0.00 77 1000.6
20260905143633 60 310 3.0 9.0 0.00 0.00 0.00 77 1000.6
20260905142905 60 295 3.0 9.0 0.00 0.00 0.00 77 1000.5
20260905142405 60 338 6.0 13.0 0.00 0.00 0.00 74 1000.5
20260905142146 61 351 8.0 14.0 0.00 0.00 0.00 73 1000.3
20260905141405 62 313 6.0 14.0 0.00 0.00 0.00 72 1000.3
20260905140905 62 290 6.0 13.0 0.00 0.00 0.00 71 1000.3
20260905140405 62 274 6.0 10.0 0.00 0.00 0.00 70 1000.2
20260905135905 62 355 5.0 9.0 0.00 0.00 0.00 69 1000.0
20260905135405 62 316 4.0 10.0 0.00 0.00 0.00 69 1000.0
20260905134904 62 358 5.0 10.0 0.00 0.00 0.00 68 1000.0
20260905134625 62 34 4.0 11.0 0.00 0.00 0.00 68 1000.0
20260905133905 62 351 4.0 12.0 0.00 0.00 0.00 69 1000.0
20260905133405 62 320 6.0 12.0 0.00 0.00 0.00 68 999.8
20260905132904 63 10 7.0 10.0 0.00 0.00 0.00 66 999.9
20260905132634 63 269 4.0 12.0 0.00 0.00 0.00 66 999.7
20260905131904 63 258 3.0 12.0 0.00 0.00 0.00 68 999.6
20260905131404 63 282 6.0 12.0 0.00 0.00 0.00 67 999.5
20260905130903 63 320 6.0 12.0 0.00 0.00 0.00 66 999.6
20260905130627 64 310 6.0 9.0 0.00 0.00 0.00 65 999.5
20260905125903 64 303 5.0 11.0 0.00 0.00 0.00 64 999.5
20260905125632 63 329 5.0 12.0 0.00 0.00 0.00 66 999.5
20260905125123 63 292 6.0 13.0 0.00 0.00 0.00 66 999.4
20260905124403 63 276 5.0 13.0 0.00 0.00 0.00 67 999.4
20260905123903 63 285 3.0 14.0 0.00 0.00 0.00 67 999.3
20260905123403 63 314 8.0 14.0 0.00 0.00 0.00 66 999.3
20260905122904 63 323 4.0 14.0 0.00 0.00 0.00 68 999.2
20260905122404 63 317 8.0 14.0 0.00 0.00 0.00 67 999.2
20260905121903 62 271 4.0 13.0 0.00 0.00 0.00 66 999.2
20260905121404 63 292 6.0 13.0 0.00 0.00 0.00 65 999.1
20260905120903 63 310 6.0 17.0 0.00 0.00 0.00 65 999.1
20260905120403 64 0 5.0 17.0 0.00 0.00 0.00 66 999.1
20260905120350 65 313 6.0 10.0 0.00 0.00 0.00 63 999.1
20260905115403 65 341 5.0 12.0 0.00 0.00 0.00 63 999.0
20260905114905 64 296 7.0 12.0 0.00 0.00 0.00 65 998.9
20260905114404 64 321 5.0 14.0 0.00 0.00 0.00 64 998.9
20260905113904 64 323 6.0 14.0 0.00 0.00 0.00 64 998.8
20260905113404 64 348 5.0 11.0 0.00 0.00 0.00 63 998.9
20260905112903 64 271 6.0 11.0 0.00 0.00 0.00 64 998.8
20260905112403 64 289 5.0 13.0 0.00 0.00 0.00 64 998.7
20260905111903 64 275 6.0 13.0 0.00 0.00 0.00 64 998.6
20260905111846 64 299 8.0 13.0 0.00 0.00 0.00 63 998.7
20260905110903 64 288 7.0 13.0 0.00 0.00 0.00 63 998.7
20260905110403 64 303 6.0 13.0 0.00 0.00 0.00 63 998.7
20260905105903 63 292 8.0 16.0 0.00 0.00 0.00 64 998.4
20260905105404 63 204 6.0 16.0 0.00 0.00 0.00 66 998.4
20260905104903 63 320 8.0 12.0 0.00 0.00 0.00 66 998.4
20260905104403 63 313 6.0 9.0 0.00 0.00 0.00 66 998.3
20260905104131 63 259 4.0 9.0 0.00 0.00 0.00 67 998.3
20260905103403 62 343 5.0 9.0 0.00 0.00 0.00 66 998.2
20260905103127 62 279 5.0 7.0 0.00 0.00 0.00 66 998.2
20260905102403 62 326 6.0 10.0 0.00 0.00 0.00 71 998.1
20260905101904 63 307 7.0 10.0 0.00 0.00 0.00 71 998.1
20260905101845 63 18 6.0 10.0 0.00 0.00 0.00 71 998.1
20260905100904 62 10 4.0 5.0 0.00 0.00 0.00 70 998.1
20260905100403 62 329 3.0 10.0 0.00 0.00 0.00 70 997.9
20260905095903 62 296 10.0 10.0 0.00 0.00 0.00 70 997.9
20260905095622 62 313 7.0 10.0 0.00 0.00 0.00 70 997.8
20260905094905 0 319 6.0 7.0 0.00 0.00 0.00 997.9
20260905094404 62 0 2.0 9.0 0.00 0.00 0.00 73 997.8
20260905093904 62 358 6.0 9.0 0.00 0.00 0.00 73 997.8
20260905093404 62 350 4.0 6.0 0.00 0.00 0.00 73 997.8
20260905093122 61 13 2.0 11.0 0.00 0.00 0.00 73 997.8
20260905092404 61 312 5.0 11.0 0.00 0.00 0.00 73 997.8
20260905091903 61 4 5.0 9.0 0.00 0.00 0.00 73 997.7
20260905091403 61 32 3.0 7.0 0.00 0.00 0.00 76 997.7
20260905090903 61 358 4.0 7.0 0.00 0.00 0.00 75 997.6
20260905090403 60 300 4.0 6.0 0.00 0.00 0.00 76 997.7
20260905090121 60 323 4.0 6.0 0.00 0.00 0.00 77 997.6
20260905085404 60 0 2.0 7.0 0.00 0.00 0.00 79 997.5
20260905084904 60 357 3.0 7.0 0.00 0.00 0.00 80 997.6
20260905084403 59 351 5.0 9.0 0.00 0.00 0.00 79 997.5
20260905083903 59 0 5.0 9.0 0.00 0.00 0.00 81 997.4
20260905083404 59 0 4.0 7.0 0.00 0.00 0.00 81 997.4
20260905082903 58 317 4.0 10.0 0.00 0.00 0.00 84 997.4
20260905082403 58 333 5.0 10.0 0.00 0.00 0.00 84 997.3
20260905081903 57 321 3.0 9.0 0.00 0.00 0.00 86 997.3
20260905081401 57 0 4.0 9.0 0.00 0.00 0.00 87 997.3
20260905081355 56 0 3.0 6.0 0.00 0.00 0.00 87 997.2
20260905080624 56 28 2.0 6.0 0.00 0.00 0.00 88 997.3
20260905075904 56 343 0.0 6.0 0.00 0.00 0.00 88 997.1
20260905075404 56 357 3.0 6.0 0.00 0.00 0.00 89 997.1
20260905074903 56 7 2.0 6.0 0.00 0.00 0.00 89 997.0
20260905074403 56 323 3.0 5.0 0.00 0.00 0.00 89 997.0
20260905073904 55 331 3.0 6.0 0.00 0.00 0.00 89 997.0
20260905073624 55 302 3.0 9.0 0.00 0.00 0.00 90 996.9
20260905072904 55 319 4.0 9.0 0.00 0.00 0.00 90 996.7
20260905072633 55 316 3.0 5.0 0.00 0.00 0.00 91 996.7
20260905071903 55 0 2.0 5.0 0.00 0.00 0.00 91 996.7
20260905071404 55 312 3.0 5.0 0.00 0.00 0.00 91 996.6
20260905070903 55 323 1.0 5.0 0.00 0.00 0.00 90 996.6
20260905070403 55 338 1.0 5.0 0.00 0.00 0.00 90 996.5
20260905065903 55 298 2.0 7.0 0.00 0.00 0.00 90 996.5
20260905065403 55 285 2.0 7.0 0.00 0.00 0.00 90 996.3
20260905064903 55 17 2.0 4.0 0.00 0.00 0.00 90 996.3
20260905064403 55 17 1.0 6.0 0.00 0.00 0.00 90 996.3
20260905063903 55 0 1.0 6.0 0.00 0.00 0.00 90 996.1
20260905063403 55 4 1.0 2.0 0.00 0.00 0.00 91 996.1
20260905062903 55 4 1.0 4.0 0.00 0.00 0.00 91 996.1
20260905062629 55 4 0.0 4.0 0.00 0.00 0.00 91 996.0
20260905061903 54 21 2.0 4.0 0.00 0.00 0.00 91 996.0
20260905061404 54 3 2.0 4.0 0.00 0.00 0.00 91 995.9
20260905061354 54 144 0.0 3.0 0.00 0.00 0.00 91 995.9
20260905060402 54 21 0.0 3.0 0.00 0.00 0.00 91 995.8
20260905055903 54 21 0.0 3.0 0.00 0.00 0.00 92 995.8
20260905055404 53 24 1.0 4.0 0.00 0.00 0.00 92 995.7
20260905054904 53 24 1.0 4.0 0.00 0.00 0.00 92 995.6
20260905054404 53 24 1.0 4.0 0.00 0.00 0.00 92 995.6
20260905053904 53 25 0.0 4.0 0.00 0.00 0.00 92 995.6
20260905053401 53 24 2.0 4.0 0.00 0.00 0.00 92 995.6
20260905052901 53 24 3.0 4.0 0.00 0.00 0.00 92 995.5
20260905052401 53 24 2.0 4.0 0.00 0.00 0.00 92 995.5
20260905051902 53 25 1.0 4.0 0.00 0.00 0.00 92 995.4
20260905051358 53 34 1.0 5.0 0.00 0.00 0.00 92 995.5
20260905050859 53 20 2.0 6.0 0.00 0.00 0.00 92 995.4
20260905050357 53 30 3.0 5.0 0.00 0.00 0.00 92 995.4
20260905045857 53 35 1.0 4.0 0.00 0.00 0.00 92 995.4
20260905045620 53 35 1.0 4.0 0.00 0.00 0.00 92 995.3
20260905044857 53 35 1.0 6.0 0.00 0.00 0.00 92 995.3
20260905044350 53 37 2.0 6.0 0.00 0.00 0.00 92 995.2
20260905043847 52 20 1.0 4.0 0.00 0.00 0.00 92 995.1
20260905043347 52 35 1.0 4.0 0.00 0.00 0.00 92 995.1
20260905043054 52 30 2.0 4.0 0.00 0.00 0.00 92 995.1
20260905042332 52 30 0.0 4.0 0.00 0.00 0.00 92 995.0
20260905041832 52 6 1.0 4.0 0.00 0.00 0.00 92 995.1
20260905041551 52 0 0.0 4.0 0.00 0.00 0.00 92 995.1
20260905040831 52 350 2.0 5.0 0.00 0.00 0.00 91 995.0
20260905040332 52 0 1.0 5.0 0.00 0.00 0.00 91 994.9
20260905035832 52 23 3.0 5.0 0.00 0.00 0.00 92 994.9
20260905035331 52 358 1.0 3.0 0.00 0.00 0.00 92 994.9
20260905034830 52 17 2.0 4.0 0.00 0.00 0.00 92 994.8
20260905034323 53 17 0.0 4.0 0.00 0.00 0.00 92 994.8
20260905034042 53 13 1.0 3.0 0.00 0.00 0.00 92 994.7
20260905033321 53 44 0.0 2.0 0.00 0.00 0.00 92 994.7
20260905032816 53 44 0.0 3.0 0.00 0.00 0.00 92 994.7
20260905032317 53 44 0.0 4.0 0.00 0.00 0.00 92 994.7
20260905031817 53 44 1.0 4.0 0.00 0.00 0.00 93 994.6
20260905031318 53 44 2.0 4.0 0.00 0.00 0.00 93 994.6
20260905030812 53 44 2.0 4.0 0.00 0.00 0.00 93 994.6
20260905030313 53 44 2.0 4.0 0.00 0.00 0.00 93 994.5
20260905025810 53 45 1.0 3.0 0.00 0.00 0.00 93 994.5
20260905025313 53 47 1.0 4.0 0.00 0.00 0.00 93 994.4
20260905024805 53 47 2.0 4.0 0.00 0.00 0.00 93 994.4
20260905024303 53 38 2.0 4.0 0.00 0.00 0.00 93 994.4
20260905023806 53 38 1.0 4.0 0.00 0.00 0.00 93 994.4
20260905023301 53 37 2.0 4.0 0.00 0.00 0.00 93 994.3
20260905022802 53 37 2.0 4.0 0.00 0.00 0.00 93 994.3
20260905022305 53 37 2.0 4.0 0.00 0.00 0.00 93 994.3
20260905021803 53 32 2.0 5.0 0.00 0.00 0.00 93 994.2
20260905021303 53 34 4.0 6.0 0.00 0.00 0.00 93 994.2
20260905020802 53 51 4.0 6.0 0.00 0.00 0.00 93 994.1
20260905020302 53 25 4.0 6.0 0.00 0.00 0.00 93 994.0
20260905015802 53 39 2.0 6.0 0.00 0.00 0.00 93 994.0
20260905015306 53 59 3.0 6.0 0.00 0.00 0.00 93 994.0
20260905014802 53 52 2.0 6.0 0.00 0.00 0.00 93 994.0
20260905014522 53 54 2.0 6.0 0.00 0.00 0.00 93 994.0
20260905014026 53 31 3.0 6.0 0.00 0.00 0.00 93 993.9
20260905013302 53 48 3.0 6.0 0.00 0.00 0.00 93 993.9
20260905012801 53 32 4.0 6.0 0.00 0.00 0.00 93 994.0
20260905012301 53 31 2.0 6.0 0.00 0.00 0.00 93 993.9
20260905011801 53 35 3.0 5.0 0.00 0.00 0.00 93 994.0
20260905011301 54 32 3.0 5.0 0.00 0.00 0.00 93 993.9
20260905011020 54 42 2.0 6.0 0.00 0.00 0.00 93 993.9
20260905010301 54 54 4.0 6.0 0.00 0.00 0.00 93 993.8
20260905005801 53 52 2.0 5.0 0.00 0.00 0.00 93 993.8
20260905005300 53 47 2.0 6.0 0.00 0.00 0.00 94 993.8
20260905005019 53 61 4.0 6.0 0.00 0.00 0.00 93 993.8
20260905004301 53 73 4.0 6.0 0.00 0.00 0.00 93 993.8
20260905003801 53 76 4.0 6.0 0.00 0.00 0.00 93 993.8
20260905003301 53 41 2.0 5.0 0.00 0.00 0.00 93 993.8
20260905002800 53 25 2.0 5.0 0.00 0.00 0.00 93 993.8
20260905002300 53 41 2.0 7.0 0.00 0.00 0.00 93 993.8
20260905001801 53 38 1.0 7.0 0.00 0.00 0.00 93 993.8
20260905001301 53 63 3.0 7.0 0.00 0.00 0.00 93 993.9
20260905001020 53 71 2.0 7.0 0.00 0.00 0.00 93 993.9
20260905000300 53 31 3.0 5.0 0.00 0.00 0.00 93 993.9
20260904235759 53 44 1.0 4.0 0.00 0.00 0.00 93 993.8
20260904235527 53 49 2.0 5.0 0.00 0.00 0.00 93 993.9